Location: Dallas
(32.7833°N, 96.8000°W)
Time: 23:27:12
(UTC-05:00)

N. Korean satellite - Pass Details

Date: 14 August 2020
Orbit: 455 x 503 km, 97.2° (Epoch: 22 September)

Event Time Altitude Azimuth Distance (km) Brightness Sun altitude
Rises 06:09:58 0° 31° (NNE) 2,541 11.2 -8.8°
Reaches altitude 10° 06:12:32 10° 51° (NE) 1,668 10.7 -8.3°
Maximum altitude 06:15:03 18° 96° (E) 1,253 9.6 -7.8°
Drops below altitude 10° 06:17:35 10° 140° (SE) 1,678 9.5 -7.3°
Sets 06:20:10 0° 160° (SSE) 2,563 10.2 -6.8°
